COSMOS 1275 DEB, 18639

Orbit data source: Space-Track

COSMOS 1275 DEB, 18639 is space debris in LEO originally from a launch on Thu, 04 Jun 1981 UTC launched from the Plesetsk Missile And Space Complex (PKMTR). Debris objects in space refer to the collection of defunct objects orbiting the Earth. Examples of debris include non-operational satellites, rocket bodies, and fragments generated from explosions, collisions, or faulty payload assembly.

Loading next visibility...
Identifier
18639, 1981-053LZ
Orbit
LEO
Country
Flag of CISCIS
Related business
Manufacturer
Unknown
Mission
Spacecraft
Bus & Motor
Unknown
Mass
Unknown
Launch date (UTC)
1981-06-04 (45 years ago)
Launch vehicle
Unknown
Launch site
Plesetsk Missile And Space Complex (PKMTR)
Object type
Payload
Rocket body
Debris
Shape & HBR
Unknown shape, 0.1 m
Radar Cross Section
Small (<0.1 m²)

Expand to show TLE details & history
Last TLE update: 11 hours ago

TLE from 11 hours ago
0 COSMOS 1275 DEB
1 18639U 81053LZ  25340.60008625  .00002600  00000-0  28018-2 0  9994
2 18639  83.0598 278.1206 0144591 327.6269 212.0486 13.68633084 11936
Epoch: 2025-12-06T14:24Z
TLE epoch observation values (Epoch: 2025-12-06T14:24:07.451Z)
Latitude
1.07427°
Longitude
166.33394°
Altitude
1,098.165 km
Speed
7.258 km/s
True Right ascension
06h 31m 57s
True Declination
1° 04' 05"
Sunlit
Object was in full shadow at epoch
Visualization orbit readout
Latitude
Unknown
Longitude
Unknown
Altitude
Unknown
Speed
Unknown
Apparent Right ascension
Unknown
Apparent Declination
Unknown
Sunlit
N/A
Visualization observer readout
Local Sidereal Time
23:21:50
Azimuth
Unknown
Elevation
Unknown
Doppler factor
Unknown
Orbital elements
Apogee altitude
1,108.34 km
Perigee altitude
894.93 km
Semi-major axis
7,379.772 km
Eccentricity
0.01446
Inclination
83.0598°
RAAN
278.1206°
Arg. of periapsis
327.6269°
True anomaly
211.1827°
Mean anomaly
212.0486°
Eccentric anomaly
211.61433°
Mean motion
3.42357 °/min
Orbital period
105.15 mins
BSTAR
0.0028018
Loading maneuver chart data...
Computing Atmospheric mass density...

Documentation

Showing up to 5 results
|